Location: Bohy
(49.9380°N, 13.5753°E)
Time: 00:52:02
(UTC+00:00)

Cosmos 1238 Rocket - Pass Details

Date: 19 May 2025
Orbit: 356 x 776 km, 82.9° (Epoch: 23 June)

Event Time Altitude Azimuth Distance (km) Brightness Sun altitude
Exits shadow 21:25:02 20° 215° (SW) 1,174 4.2 -16.9°
Maximum altitude 21:27:16 48° 282° (WNW) 617 3.3 -17.0°
Drops below altitude 10° 21:30:28 10° 358° (N) 1,528 6.2 -17.2°
Sets 21:32:26 0° 4° (N) 2,344 7.2 -17.3°
